Grand Rapids, MI

2:13 AM EDT on March 26, 2017 (GMT -0400)
Gerald R. Ford International

Weather History for KGRR - May, 2012

Change the Weather History Date:

Saturday, May 5, 2012

  Actual Average Record
Temperature  
Mean Temperature 55 °F 55 °F  
Max Temperature 60 °F 66 °F 89 °F (1959)
Min Temperature 50 °F 44 °F 28 °F (1983)
Degree Days  
Heating Degree Days 10 10  
Month to date heating degree days 18 55  
Since 1 July heating degree days 5112 6260  
Cooling Degree Days 0 1  
Month to date cooling degree days 17 1  
Year to date cooling degree days 44 9  
Growing Degree Days 6 (Base 50)    
Moisture  
Dew Point 48 °F    
Average Humidity 75    
Maximum Humidity 86    
Minimum Humidity 63    
Precipitation  
Precipitation 0.02 in 0.12 in 1.73 in (1976)
Month to date precipitation 0.42 0.61  
Year to date precipitation 11.85 10.21  
Snow  
Snow 0.00 in 0.00 in 0.30 in (1954)
Month to date snowfall 0.0 0.0  
Since 1 July snowfall 51.2 74.9  
Snow Depth 0.00 in    
Sea Level Pressure  
Sea Level Pressure 30.06 in    
Wind  
Wind Speed 10 mph (ENE)    
Max Wind Speed 20 mph    
Max Gust Speed 25 mph    
Visibility 10 miles    
Events Rain    
T = Trace of Precipitation, MM = Missing Value Source: NWS Daily Summary

Daily Weather History Graph

Daily Weather History Graph

Search for Another Location

Airport or City:

Trip Planner

Search our weather history database for the weather conditions in past years. The results will help you decide how hot, cold, wet, or windy it might be!

Date:

Astronomy

May. 05, 2012 Rise Set
Actual Time 6:30 AM EDT 8:47 PM EDT
Civil Twilight 5:58 AM EDT 9:19 PM EDT
Nautical Twilight 5:19 AM EDT 9:58 PM EDT
Astronomical Twilight 4:36 AM EDT 10:42 PM EDT
Moon 8:40 PM EDT (5/5) 5:52 AM EDT (5/5)
Length of Visible Light 15h 20m
Length of Day
14h 17m
Full, 100% of the Moon is Illuminated
May 5
Full
May 5
Full
May 12
Last Quarter
May 20
New
May 28
First Quarter

Hourly Weather History & Observations

Time (EDT) Temp. Dew Point Humidity Pressure Visibility Wind Dir Wind Speed Gust Speed Precip Events Conditions
12:10 AM 57.2 °F 53.6 °F 88% 30.05 in 10.0 mi ENE 11.5 mph - N/A   Overcast
12:50 AM 57.2 °F 53.6 °F 88% 30.04 in 10.0 mi East 13.8 mph - N/A   Overcast
12:53 AM 57.9 °F 53.1 °F 84% 30.03 in 10.0 mi East 13.8 mph - N/A   Overcast
1:43 AM 57.2 °F 51.8 °F 82% 30.02 in 10.0 mi East 15.0 mph - N/A   Scattered Clouds
1:53 AM 55.9 °F 50.0 °F 80% 30.01 in 10.0 mi East 13.8 mph - N/A   Clear
2:53 AM 55.0 °F 48.9 °F 80% 30.01 in 10.0 mi ENE 9.2 mph - N/A   Clear
3:53 AM 53.1 °F 46.9 °F 80% 30.01 in 10.0 mi NE 12.7 mph - N/A   Partly Cloudy
4:53 AM 53.1 °F 46.9 °F 80% 30.01 in 10.0 mi East 12.7 mph - N/A   Overcast
5:53 AM 52.0 °F 46.0 °F 80% 30.02 in 10.0 mi ENE 12.7 mph - N/A   Scattered Clouds
6:53 AM 51.1 °F 45.0 °F 80% 30.03 in 10.0 mi East 9.2 mph - N/A   Scattered Clouds
7:53 AM 53.1 °F 45.0 °F 74% 30.06 in 10.0 mi ENE 12.7 mph - N/A   Mostly Cloudy
8:26 AM 53.6 °F 44.6 °F 72% 30.06 in 10.0 mi ENE 10.4 mph - N/A   Mostly Cloudy
8:53 AM 54.0 °F 46.0 °F 75% 30.06 in 10.0 mi East 11.5 mph - N/A   Mostly Cloudy
9:53 AM 55.9 °F 46.9 °F 72% 30.08 in 10.0 mi East 17.3 mph - N/A   Overcast
10:53 AM 55.9 °F 48.0 °F 75% 30.09 in 10.0 mi ENE 15.0 mph - N/A   Overcast
11:53 AM 55.9 °F 48.0 °F 75% 30.09 in 10.0 mi ENE 12.7 mph - N/A   Overcast
12:53 PM 57.9 °F 50.0 °F 75% 30.08 in 10.0 mi East 15.0 mph - N/A   Overcast
1:53 PM 59.0 °F 51.1 °F 75% 30.07 in 10.0 mi East 13.8 mph - N/A   Overcast
2:53 PM 60.1 °F 52.0 °F 75% 30.07 in 8.0 mi ESE 8.1 mph - 0.00 in Rain Light Rain
3:53 PM 57.9 °F 54.0 °F 87% 30.08 in 3.0 mi NE 4.6 mph - 0.02 in Rain Light Rain
4:53 PM 57.0 °F 54.0 °F 89% 30.06 in 8.0 mi East 5.8 mph - 0.00 in Rain Light Rain
5:53 PM 57.9 °F 55.0 °F 90% 30.07 in 7.0 mi East 3.5 mph - 0.00 in Rain Light Rain
6:53 PM 59.0 °F 55.0 °F 87% 30.07 in 10.0 mi East 4.6 mph - 0.00 in   Overcast
7:53 PM 57.0 °F 50.0 °F 77% 30.10 in 10.0 mi ENE 10.4 mph - N/A   Overcast
8:53 PM 55.0 °F 45.0 °F 69% 30.11 in 10.0 mi ENE 9.2 mph - N/A   Overcast
9:46 PM 53.6 °F 42.8 °F 67% 30.11 in 10.0 mi ENE 11.5 mph - N/A   Overcast
9:53 PM 54.0 °F 42.1 °F 64% 30.12 in 10.0 mi ENE 9.2 mph - N/A   Overcast
10:53 PM 53.1 °F 42.1 °F 66% 30.12 in 10.0 mi ENE 6.9 mph - N/A   Overcast
11:53 PM 51.1 °F 39.0 °F 63% 30.09 in 10.0 mi East 8.1 mph - N/A   Mostly Cloudy